�������l�o���
Date,Time,MP-1(��Sv/h),MP-2(��Sv/h),MP-3(��Sv/h),MP-4(��Sv/h),MP-5(��Sv/h),MP-6(��Sv/h),MP-7(��Sv/h),����,����(m/s),���J
2018/09/18,00:00,0.308,0.190,0.308,0.298,0.283,0.153,0.093,�k,0.6,��
2018/09/18,00:10,0.310,0.190,0.306,0.297,0.281,0.154,0.094,-,CALM,��
2018/09/18,00:20,0.307,0.191,0.308,0.297,0.282,0.153,0.094,�k�k��,0.6,��
2018/09/18,00:30,0.311,0.190,0.306,0.297,0.283,0.154,0.094,�k��,0.8,��
2018/09/18,00:40,0.309,0.191,0.309,0.295,0.280,0.152,0.093,-,CALM,��
2018/09/18,00:50,0.307,0.189,0.306,0.298,0.284,0.154,0.094,-,CALM,��
2018/09/18,01:00,0.310,0.190,0.308,0.296,0.284,0.153,0.093,-,CALM,��
2018/09/18,01:10,0.307,0.190,0.307,0.298,0.280,0.153,0.094,-,CALM,��
2018/09/18,01:20,0.311,0.189,0.308,0.297,0.284,0.153,0.094,�k,0.8,��
2018/09/18,01:30,0.308,0.191,0.309,0.296,0.281,0.152,0.093,�k,2.5,��
2018/09/18,01:40,0.308,0.189,0.305,0.297,0.282,0.154,0.094,�k,3.2,��
2018/09/18,01:50,0.311,0.189,0.310,0.294,0.284,0.154,0.094,�k�k��,3.4,��
2018/09/18,02:00,0.307,0.190,0.306,0.299,0.282,0.153,0.094,�k�k��,4.1,��
2018/09/18,02:10,0.310,0.191,0.309,0.295,0.285,0.153,0.094,�k,4.1,��
2018/09/18,02:20,0.308,0.189,0.309,0.299,0.282,0.153,0.094,�k,4.6,��
2018/09/18,02:30,0.309,0.190,0.306,0.297,0.284,0.154,0.094,�k,2.4,��
2018/09/18,02:40,0.309,0.189,0.309,0.297,0.282,0.152,0.094,�k,4.0,��
2018/09/18,02:50,0.308,0.191,0.305,0.299,0.284,0.153,0.094,�k,4.2,��
2018/09/18,03:00,0.310,0.189,0.308,0.296,0.282,0.154,0.093,�k,3.7,��
2018/09/18,03:10,0.307,0.190,0.307,0.299,0.281,0.154,0.094,�k,4.5,��
2018/09/18,03:20,0.310,0.190,0.310,0.296,0.283,0.153,0.093,�k,3.5,��
2018/09/18,03:30,0.307,0.191,0.307,0.299,0.283,0.153,0.095,���k��,1.5,��
2018/09/18,03:40,0.312,0.189,0.308,0.296,0.283,0.154,0.093,���쐼,1.1,��
2018/09/18,03:50,0.308,0.191,0.306,0.299,0.281,0.153,0.094,���쐼,1.1,��
2018/09/18,04:00,0.310,0.190,0.309,0.296,0.285,0.153,0.094,���쐼,1.7,��
2018/09/18,04:10,0.310,0.191,0.306,0.299,0.281,0.152,0.094,�쐼,0.7,��
2018/09/18,04:20,0.310,0.189,0.308,0.296,0.283,0.154,0.094,���쐼,2.2,��
2018/09/18,04:30,0.310,0.191,0.306,0.297,0.281,0.153,0.093,���쐼,1.9,��
2018/09/18,04:40,0.309,0.190,0.306,0.297,0.283,0.154,0.094,���쐼,2.5,��
2018/09/18,04:50,0.309,0.191,0.307,0.296,0.282,0.153,0.094,���쐼,1.4,��
2018/09/18,05:00,0.307,0.189,0.307,0.298,0.281,0.153,0.094,���k��,1.2,��
2018/09/18,05:10,0.311,0.190,0.308,0.296,0.282,0.154,0.095,���k��,0.8,��
2018/09/18,05:20,0.307,0.188,0.307,0.298,0.282,0.154,0.095,���k��,0.6,��
2018/09/18,05:30,0.310,0.192,0.309,0.296,0.284,0.154,0.094,-,CALM,��
2018/09/18,05:40,0.308,0.190,0.306,0.299,0.281,0.154,0.095,-,CALM,��
2018/09/18,05:50,0.311,0.191,0.308,0.296,0.285,0.153,0.094,-,CALM,��
2018/09/18,06:00,0.307,0.188,0.307,0.299,0.281,0.154,0.094,�k�k��,0.9,��
2018/09/18,06:10,0.311,0.191,0.308,0.295,0.283,0.153,0.093,-,CALM,��
2018/09/18,06:20,0.308,0.190,0.307,0.297,0.281,0.154,0.094,�k��,0.8,��
2018/09/18,06:30,0.309,0.191,0.309,0.298,0.284,0.153,0.094,�k��,1.3,��
2018/09/18,06:40,0.310,0.189,0.306,0.296,0.282,0.153,0.094,���k��,1.2,��
2018/09/18,06:50,0.308,0.191,0.309,0.298,0.281,0.153,0.093,���k��,0.9,��
2018/09/18,07:00,0.312,0.190,0.307,0.296,0.283,0.153,0.094,�k��,1.2,��
2018/09/18,07:10,0.307,0.191,0.309,0.299,0.282,0.155,0.095,���쓌,0.6,��
2018/09/18,07:20,0.311,0.190,0.308,0.297,0.282,0.153,0.093,�k��,0.6,��
2018/09/18,07:30,0.309,0.190,0.306,0.296,0.285,0.153,0.095,-,CALM,��
2018/09/18,07:40,0.306,0.190,0.309,0.298,0.283,0.154,0.095,�k,0.8,��
2018/09/18,07:50,0.309,0.190,0.306,0.295,0.279,0.152,0.095,�k�k��,1.8,��
2018/09/18,08:00,0.309,0.188,0.306,0.296,0.284,0.153,0.093,�k�k��,1.2,��
2018/09/18,08:10,0.308,0.189,0.309,0.299,0.282,0.153,0.093,�k,0.9,��
2018/09/18,08:20,0.310,0.190,0.306,0.296,0.280,0.154,0.094,-,CALM,��
2018/09/18,08:30,0.310,0.189,0.306,0.294,0.281,0.153,0.093,�k��,0.7,��
2018/09/18,08:40,0.307,0.188,0.308,0.299,0.283,0.155,0.093,�쓌,0.8,��
2018/09/18,08:50,0.307,0.191,0.307,0.298,0.281,0.152,0.094,-,CALM,��
2018/09/18,09:00,0.311,0.190,0.305,0.296,0.280,0.152,0.095,��,1.1,��
2018/09/18,09:10,0.309,0.189,0.308,0.293,0.279,0.153,0.094,���쓌,1.5,��
2018/09/18,09:20,0.306,0.188,0.306,0.294,0.280,0.154,0.092,��,1.5,��
2018/09/18,09:30,0.308,0.188,0.306,0.298,0.284,0.154,0.093,��,1.5,��
2018/09/18,09:40,0.310,0.187,0.309,0.298,0.284,0.153,0.093,��,1.5,��
2018/09/18,09:50,0.309,0.189,0.307,0.298,0.282,0.152,0.093,�쓌,1.2,��
2018/09/18,10:00,0.307,0.188,0.306,0.296,0.281,0.154,0.093,��쓌,1.1,��
2018/09/18,10:10,0.307,0.188,0.309,0.296,0.280,0.153,0.094,�쓌,0.9,��
2018/09/18,10:20,0.308,0.189,0.307,0.296,0.279,0.154,0.093,�쓌,2.1,��
2018/09/18,10:30,0.305,0.188,0.305,0.296,0.279,0.155,0.094,��쓌,1.8,��
2018/09/18,10:40,0.307,0.189,0.309,0.295,0.278,0.155,0.093,�쓌,2.2,��
2018/09/18,10:50,0.307,0.189,0.309,0.295,0.281,0.154,0.093,���쓌,1.8,��
2018/09/18,11:00,0.308,0.191,0.306,0.295,0.280,0.153,0.093,�쓌,1.8,��
2018/09/18,11:10,0.308,0.189,0.305,0.296,0.286,0.153,0.094,�쓌,2.3,��
2018/09/18,11:20,0.308,0.188,0.303,0.296,0.285,0.153,0.094,�쓌,2.0,��
2018/09/18,11:30,0.306,0.189,0.304,0.298,0.284,0.154,0.093,�쓌,2.0,��
2018/09/18,11:40,0.306,0.192,0.310,0.301,0.281,0.155,0.093,���쓌,2.0,��
2018/09/18,11:50,0.308,0.190,0.308,0.299,0.281,0.154,0.094,�쓌,1.4,��
2018/09/18,12:00,0.313,0.190,0.306,0.297,0.281,0.153,0.093,�쓌,1.3,��
2018/09/18,12:10,0.310,0.189,0.306,0.295,0.285,0.154,0.094,���쓌,1.6,��
2018/09/18,12:20,0.309,0.189,0.311,0.298,0.284,0.153,0.094,���쓌,0.7,��
2018/09/18,12:30,0.307,0.192,0.308,0.299,0.281,0.154,0.094,�쓌,1.5,��
2018/09/18,12:40,0.311,0.190,0.305,0.298,0.280,0.154,0.092,��쓌,1.3,��
2018/09/18,12:50,0.312,0.189,0.309,0.296,0.282,0.152,0.094,�쓌,1.4,��
2018/09/18,13:00,0.310,0.188,0.310,0.299,0.284,0.153,0.094,��,3.0,��
2018/09/18,13:10,0.307,0.189,0.307,0.299,0.282,0.154,0.094,��,2.7,��
2018/09/18,13:20,0.306,0.190,0.305,0.297,0.281,0.154,0.092,��쓌,2.4,��
2018/09/18,13:30,0.312,0.190,0.309,0.294,0.281,0.153,0.094,��쓌,3.1,��
2018/09/18,13:40,0.310,0.190,0.309,0.296,0.283,0.153,0.093,��,2.6,��
2018/09/18,13:50,0.309,0.188,0.307,0.299,0.284,0.155,0.094,��쓌,2.8,��
2018/09/18,14:00,0.306,0.191,0.305,0.298,0.282,0.154,0.094,��,4.2,��
2018/09/18,14:10,0.307,0.191,0.308,0.297,0.281,0.153,0.094,��쓌,4.5,��
2018/09/18,14:20,0.311,0.190,0.308,0.295,0.281,0.154,0.093,��쓌,3.9,��
2018/09/18,14:30,0.311,0.189,0.307,0.294,0.280,0.152,0.093,��쓌,3.7,��
2018/09/18,14:40,0.309,0.188,0.306,0.295,0.281,0.153,0.094,��,3.9,��
2018/09/18,14:50,0.308,0.189,0.305,0.300,0.281,0.153,0.093,��,5.2,��
2018/09/18,15:00,0.306,0.189,0.305,0.299,0.281,0.153,0.094,��,5.5,��
2018/09/18,15:10,0.306,0.190,0.308,0.298,0.281,0.155,0.094,��쐼,4.9,��
2018/09/18,15:20,0.307,0.192,0.309,0.297,0.285,0.154,0.095,��,4.5,��
2018/09/18,15:30,0.312,0.191,0.307,0.300,0.285,0.155,0.093,��,4.2,��
2018/09/18,15:40,0.312,0.188,0.307,0.299,0.283,0.153,0.093,��,4.3,��
2018/09/18,15:50,0.309,0.190,0.311,0.298,0.282,0.153,0.095,��,4.6,��
2018/09/18,16:00,0.308,0.192,0.308,0.297,0.281,0.154,0.094,��,4.8,��
2018/09/18,16:10,0.311,0.191,0.305,0.299,0.280,0.154,0.094,��,4.5,��
2018/09/18,16:20,0.312,0.189,0.309,0.297,0.280,0.154,0.094,��,5.5,��
2018/09/18,16:30,0.310,0.192,0.310,0.296,0.280,0.155,0.094,��,6.3,��
2018/09/18,16:40,0.309,0.191,0.306,0.301,0.285,0.155,0.094,��,5.4,��
2018/09/18,16:50,0.311,0.189,0.309,0.301,0.285,0.154,0.095,��,5.7,��
2018/09/18,17:00,0.310,0.192,0.310,0.297,0.281,0.155,0.094,��쐼,4.8,��
2018/09/18,17:10,0.307,0.191,0.308,0.300,0.284,0.155,0.094,��쐼,3.7,��
2018/09/18,17:20,0.313,0.190,0.308,0.300,0.287,0.153,0.095,��쐼,2.8,��
2018/09/18,17:30,0.311,0.192,0.310,0.297,0.284,0.154,0.095,���쐼,1.4,��
2018/09/18,17:40,0.309,0.190,0.308,0.299,0.283,0.155,0.093,�k��,2.6,��
2018/09/18,17:50,0.313,0.190,0.310,0.299,0.286,0.153,0.094,�k�k��,4.3,��
2018/09/18,18:00,0.310,0.190,0.310,0.297,0.282,0.156,0.094,�k,5.1,��
2018/09/18,18:10,0.310,0.190,0.308,0.301,0.286,0.155,0.095,�k,5.9,��
2018/09/18,18:20,0.312,0.192,0.309,0.299,0.287,0.154,0.095,�k�k��,5.6,��
2018/09/18,18:30,0.310,0.191,0.309,0.297,0.283,0.155,0.094,�k�k��,5.4,��
2018/09/18,18:40,0.312,0.191,0.310,0.300,0.285,0.154,0.095,�k,5.2,��
2018/09/18,18:50,0.312,0.192,0.309,0.296,0.284,0.155,0.094,�k,3.7,��
2018/09/18,19:00,0.310,0.191,0.308,0.301,0.285,0.154,0.095,�k�k��,4.5,��
2018/09/18,19:10,0.313,0.192,0.310,0.300,0.284,0.154,0.095,�k,4.8,��
2018/09/18,19:20,0.310,0.190,0.308,0.299,0.283,0.154,0.095,�k,5.1,��
2018/09/18,19:30,0.310,0.192,0.310,0.301,0.285,0.154,0.095,�k,6.3,��
2018/09/18,19:40,0.312,0.190,0.310,0.297,0.281,0.155,0.094,�k,7.2,��
2018/09/18,19:50,0.309,0.191,0.309,0.301,0.285,0.154,0.094,�k,5.5,��
2018/09/18,20:00,0.313,0.192,0.312,0.297,0.284,0.154,0.095,�k,5.0,��
2018/09/18,20:10,0.310,0.191,0.309,0.300,0.284,0.155,0.095,�k�k��,5.8,��
2018/09/18,20:20,0.311,0.191,0.312,0.299,0.285,0.155,0.095,�k�k��,5.0,��
2018/09/18,20:30,0.312,0.191,0.308,0.298,0.283,0.155,0.095,�k�k��,5.7,��
2018/09/18,20:40,0.310,0.192,0.310,0.300,0.287,0.153,0.095,�k��,5.1,��
2018/09/18,20:50,0.312,0.191,0.309,0.298,0.282,0.155,0.095,�k�k��,4.9,��
2018/09/18,21:00,0.311,0.192,0.308,0.301,0.286,0.155,0.095,�k��,5.1,��
2018/09/18,21:10,0.314,0.192,0.311,0.299,0.282,0.155,0.095,�k��,3.6,��
2018/09/18,21:20,0.309,0.191,0.309,0.300,0.285,0.154,0.095,�k��,3.1,��
2018/09/18,21:30,0.312,0.190,0.310,0.300,0.283,0.155,0.095,�k�k��,3.2,��
2018/09/18,21:40,0.311,0.192,0.308,0.301,0.283,0.154,0.095,�k��,3.4,��
2018/09/18,21:50,0.312,0.192,0.312,0.299,0.282,0.155,0.094,�k��,3.5,��
2018/09/18,22:00,0.312,0.190,0.308,0.301,0.285,0.155,0.095,�k��,4.6,��
2018/09/18,22:10,0.311,0.192,0.311,0.298,0.284,0.155,0.094,�k��,4.9,��
2018/09/18,22:20,0.311,0.191,0.309,0.301,0.284,0.154,0.095,�k�k��,4.4,��
2018/09/18,22:30,0.311,0.191,0.310,0.298,0.284,0.154,0.094,�k�k��,4.6,��
2018/09/18,22:40,0.311,0.190,0.308,0.300,0.283,0.155,0.096,�k��,4.0,��
2018/09/18,22:50,0.310,0.191,0.311,0.298,0.285,0.154,0.094,�k��,3.3,��
2018/09/18,23:00,0.313,0.190,0.309,0.298,0.283,0.154,0.095,�k��,2.0,��
2018/09/18,23:10,0.311,0.191,0.311,0.299,0.284,0.156,0.094,�k��,1.9,��
2018/09/18,23:20,0.312,0.191,0.309,0.300,0.282,0.154,0.095,�k�k��,2.1,��
2018/09/18,23:30,0.310,0.192,0.311,0.298,0.285,0.155,0.094,�k,4.5,��
2018/09/18,23:40,0.313,0.192,0.309,0.300,0.282,0.154,0.095,�k,4.9,��
2018/09/18,23:50,0.311,0.191,0.312,0.299,0.284,0.154,0.095,�k,4.6,��
